Location: Melbourne
(37.8170°S, 144.9670°E)
Time: 02:59:17
(UTC+11:00)

CZ-3 R/B - Visible Passes

Search period start: 24 November 2014 00:00
Search period end: 04 December 2014 00:00
Orbit: 200 x 14561 km, 28.5° (Epoch: 21 November)

Date Brightness Start Highest point End Pass type
(mag) Time Alt. Az. Time Alt. Az. Time Alt. Az.
24 Nov 5.6 01:09:19 10° WNW 02:10:13 24° N 03:11:36 10° NNE visible
24 Nov 5.1 23:18:37 10° WNW 23:33:05 39° NNW 00:49:18 10° NE visible
25 Nov 4.0 21:29:52 10° WNW 21:37:55 44° N 22:03:06 18° NE visible
26 Nov 6.0 02:19:08 10° WNW 03:14:25 20° NNW 04:17:16 10° N visible
27 Nov 5.4 00:22:11 10° WNW 00:42:12 31° NNW 02:07:31 10° NNE visible
27 Nov 4.7 22:30:24 10° WNW 22:41:35 38° N 22:59:38 27° NNE visible
28 Nov 6.4 04:14:57 12° NNW 04:14:57 12° NNW 04:54:09 10° NNW visible
28 Nov 3.5 20:40:04 10° WNW 20:46:12 40° N 21:12:28 10° ENE visible
29 Nov 5.8 01:25:11 10° WNW 02:30:21 18° N 03:14:07 10° N visible
29 Nov 5.2 23:28:41 10° WNW 23:43:56 31° NNW 00:51:25 10° NNE visible
30 Nov 4.3 21:35:45 10° WNW 21:44:05 36° N 22:06:03 18° NE visible
01 Dec 6.1 02:31:49 10° NW 03:25:45 14° NNW 04:04:36 10° N visible
02 Dec 5.5 00:25:29 10° WNW 01:38:52 14° NNE 01:56:52 10° NNE visible
02 Dec 4.9 22:28:57 10° WNW 22:40:03 31° N 22:55:49 23° NNE visible
03 Dec 3.7 20:34:46 10° WNW 20:40:43 33° N 21:02:48 10° NE visible
